KF5JED-13 Weather Reports


time (UTC)temp
C
wind
direction
speed
KPH
gust
KPH
rain 1hr
cm
rain 24hr
cm
rain mn
cm
humidity
%
barometer
mb
20260904163730 33 244 11.3 17.7 0.00 0.00 0.00 37 1016.6
20260904163225 33 216 16.1 17.7 0.00 0.00 0.00 39 1016.6
20260904162724 32 197 8.0 16.1 0.00 0.00 0.00 39 1016.6
20260904162219 32 248 9.7 14.5 0.00 0.00 0.00 40 1016.6
20260904161715 31 219 12.9 19.3 0.00 0.00 0.00 40 1016.3
20260904161209 31 203 6.4 12.9 0.00 0.00 0.00 41 1016.5
20260904160705 31 226 9.7 17.7 0.00 0.00 0.00 42 1016.6
20260904160201 31 195 9.7 9.7 0.00 0.00 0.00 43 1016.5
20260904155655 31 194 9.7 17.7 0.00 0.00 0.00 45 1016.7
20260904155155 31 239 6.4 12.9 0.00 0.00 0.00 45 1016.3
20260904154653 30 217 11.3 12.9 0.00 0.00 0.00 48 1016.5
20260904154153 30 219 8.0 14.5 0.00 0.00 0.00 48 1016.3
20260904153649 30 241 6.4 12.9 0.00 0.00 0.00 49 1016.2
20260904153144 28 221 9.7 11.3 0.00 0.00 0.00 50 1016.3
20260904152641 29 206 8.0 12.9 0.00 0.00 0.00 50 1016.2
20260904152136 28 213 9.7 11.3 0.00 0.00 0.00 50 1016.2
20260904151630 28 236 6.4 12.9 0.00 0.00 0.00 50 1016.0
20260904151129 28 215 6.4 14.5 0.00 0.00 0.00 49 1016.1
20260904150625 28 210 9.7 9.7 0.00 0.00 0.00 50 1016.2
20260904150120 28 225 4.8 11.3 0.00 0.00 0.00 51 1016.3
20260904145618 28 200 8.0 12.9 0.00 0.00 0.00 49 1016.3
20260904145114 27 201 4.8 12.9 0.00 0.00 0.00 49 1016.2
20260904144609 27 195 6.4 8.0 0.00 0.00 0.00 52 1016.3
20260904144105 27 167 6.4 9.7 0.00 0.00 0.00 55 1016.2
20260904143601 27 171 6.4 8.0 0.00 0.00 0.00 54 1016.3
20260904143057 26 168 4.8 9.7 0.00 0.00 0.00 55 1016.3
20260904142554 26 152 6.4 8.0 0.00 0.00 0.00 56 1016.3
20260904142053 26 156 3.2 4.8 0.00 0.00 0.00 57 1016.3
20260904141549 26 147 3.2 3.2 0.00 0.00 0.00 59 1016.2
20260904141044 25 188 3.2 3.2 0.00 0.00 0.00 59 1016.1
20260904140539 25 234 1.6 3.2 0.00 0.00 0.00 61 1016.2
20260904140033 25 268 0.0 3.2 0.00 0.00 0.00 60 1015.9
20260904135533 27 103 0.0 0.0 0.00 0.00 0.00 58 1016.2
20260904135029 26 62 0.0 1.6 0.00 0.00 0.00 61 1016.1
20260904134524 25 22 0.0 1.6 0.00 0.00 0.00 65 1016.0
20260904134019 23 116 0.0 1.6 0.00 0.00 0.00 68 1015.9
20260904133513 23 122 1.6 3.2 0.00 0.00 0.00 69 1016.1
20260904133009 23 145 0.0 3.2 0.00 0.00 0.00 71 1016.0
20260904132504 22 142 0.0 1.6 0.00 0.00 0.00 75 1016.0
20260904132003 21 89 0.0 1.6 0.00 0.00 0.00 78 1015.8
20260904131458 20 130 0.0 3.2 0.00 0.00 0.00 81 1015.9
20260904130954 20 105 1.6 3.2 0.00 0.00 0.00 84 1015.6
20260904130453 18 92 0.0 3.2 0.00 0.00 0.00 84 1015.9
20260904125949 18 66 0.0 1.6 0.00 0.00 0.00 85 1015.7
20260904125444 18 134 1.6 3.2 0.00 0.00 0.00 85 1015.6
20260904124943 18 161 3.2 3.2 0.00 0.00 0.00 85 1015.5
20260904124440 18 156 0.0 3.2 0.00 0.00 0.00 86 1015.6
20260904123935 18 156 3.2 4.8 0.00 0.00 0.00 85 1015.5
20260904123431 18 162 3.2 4.8 0.00 0.00 0.00 84 1015.6
20260904122926 19 192 3.2 6.4 0.00 0.00 0.00 84 1015.1
20260904122426 18 195 4.8 6.4 0.00 0.00 0.00 86 1015.2
20260904121920 18 178 4.8 6.4 0.00 0.00 0.00 85 1015.0
20260904121417 18 159 3.2 4.8 0.00 0.00 0.00 83 1015.1
20260904120913 20 199 4.8 6.4 0.00 0.00 0.00 81 1015.2
20260904120409 19 216 3.2 3.2 0.00 0.00 0.00 82 1015.1
20260904115904 19 299 1.6 3.2 0.00 0.00 0.00 82 1015.2
20260904115359 19 129 0.0 1.6 0.00 0.00 0.00 82 1015.1
20260904114853 19 145 1.6 3.2 0.00 0.00 0.00 82 1014.9
20260904114348 19 202 3.2 3.2 0.00 0.00 0.00 83 1015.1
20260904113843 19 142 3.2 4.8 0.00 0.00 0.00 82 1015.0
20260904113343 19 191 3.2 4.8 0.00 0.00 0.00 82 1015.1
20260904112837 20 169 4.8 6.4 0.00 0.00 0.00 80 1014.9
20260904112333 20 148 4.8 8.0 0.00 0.00 0.00 80 1015.1
20260904111828 20 154 6.4 6.4 0.00 0.00 0.00 79 1015.1
20260904111324 20 198 8.0 11.3 0.00 0.00 0.00 77 1015.1
20260904110820 20 173 4.8 6.4 0.00 0.00 0.00 78 1015.1
20260904110319 21 186 6.4 8.0 0.00 0.00 0.00 77 1015.0
20260904105813 21 168 8.0 9.7 0.00 0.00 0.00 74 1014.8
20260904105308 21 139 6.4 9.7 0.00 0.00 0.00 73 1014.7
20260904104803 22 156 8.0 9.7 0.00 0.00 0.00 72 1014.7
20260904104259 22 164 8.0 11.3 0.00 0.00 0.00 72 1014.8
20260904103756 22 141 8.0 11.3 0.00 0.00 0.00 72 1014.7
20260904103255 22 158 12.9 16.1 0.00 0.00 0.00 72 1014.7
20260904102751 22 161 11.3 12.9 0.00 0.00 0.00 72 1014.7
20260904102246 21 146 9.7 12.9 0.00 0.00 0.00 73 1014.8
20260904101742 21 147 11.3 11.3 0.00 0.00 0.00 72 1014.6
20260904101238 21 146 8.0 12.9 0.00 0.00 0.00 72 1014.5
20260904100734 22 148 9.7 11.3 0.00 0.00 0.00 72 1014.5
20260904100230 22 147 8.0 12.9 0.00 0.00 0.00 71 1014.3
20260904095729 22 140 6.4 11.3 0.00 0.00 0.00 71 1014.3
20260904095224 22 134 9.7 12.9 0.00 0.00 0.00 70 1014.5
20260904094720 22 133 9.7 14.5 0.00 0.00 0.00 69 1014.3
20260904094219 22 143 12.9 16.1 0.00 0.00 0.00 69 1014.1
20260904093716 22 138 9.7 19.3 0.00 0.00 0.00 69 1014.2
20260904093215 22 138 14.5 19.3 0.00 0.00 0.00 68 1014.1
20260904092711 22 136 11.3 17.7 0.00 0.00 0.00 68 1014.1
20260904092207 22 126 12.9 19.3 0.00 0.00 0.00 68 1014.1
20260904091703 22 131 14.5 17.7 0.00 0.00 0.00 68 1014.3
20260904091158 22 134 9.7 17.7 0.00 0.00 0.00 67 1013.9
20260904090654 22 140 11.3 17.7 0.00 0.00 0.00 66 1014.5
20260904090149 22 148 11.3 19.3 0.00 0.00 0.00 67 1014.5
20260904085644 22 150 14.5 19.3 0.00 0.00 0.00 67 1014.1
20260904085143 22 151 11.3 16.1 0.00 0.00 0.00 67 1014.1
20260904084639 22 148 9.7 11.3 0.00 0.00 0.00 68 1014.3
20260904084135 22 156 11.3 14.5 0.00 0.00 0.00 67 1014.5
20260904083631 23 147 9.7 19.3 0.00 0.00 0.00 66 1014.5
20260904083127 23 160 11.3 16.1 0.00 0.00 0.00 65 1014.6
20260904082621 23 144 14.5 19.3 0.00 0.00 0.00 64 1014.6
20260904082117 23 148 12.9 20.9 0.00 0.00 0.00 64 1014.5
20260904081612 23 153 9.7 19.3 0.00 0.00 0.00 64 1014.5
20260904081108 23 153 9.7 16.1 0.00 0.00 0.00 64 1014.3
20260904080603 23 148 12.9 19.3 0.00 0.00 0.00 64 1014.6
20260904080059 23 151 17.7 20.9 0.00 0.00 0.00 63 1014.3
20260904075555 23 148 11.3 17.7 0.00 0.00 0.00 63 1014.2
20260904075050 23 145 14.5 19.3 0.00 0.00 0.00 62 1014.5
20260904074548 23 140 11.3 20.9 0.00 0.00 0.00 61 1014.6
20260904074038 23 156 9.7 19.3 0.00 0.00 0.00 62 1014.3
20260904073533 24 139 11.3 16.1 0.00 0.00 0.00 62 1014.2
20260904073030 24 149 14.5 17.7 0.00 0.00 0.00 61 1014.5
20260904072525 24 159 14.5 20.9 0.00 0.00 0.00 62 1014.3
20260904072020 23 154 19.3 22.5 0.00 0.00 0.00 62 1014.5
20260904071515 23 159 14.5 22.5 0.00 0.00 0.00 63 1014.3
20260904071010 23 156 12.9 20.9 0.00 0.00 0.00 64 1014.6
20260904070509 23 158 14.5 17.7 0.00 0.00 0.00 65 1014.7
20260904070004 22 162 12.9 16.1 0.00 0.00 0.00 68 1014.6
20260904065459 22 157 8.0 12.9 0.00 0.00 0.00 71 1014.6
20260904064955 22 155 9.7 12.9 0.00 0.00 0.00 72 1014.6
20260904064451 22 169 9.7 11.3 0.00 0.00 0.00 70 1014.7
20260904063945 22 168 9.7 14.5 0.00 0.00 0.00 69 1014.8
20260904063442 22 153 8.0 17.7 0.00 0.00 0.00 68 1014.8
20260904062937 23 149 9.7 17.7 0.00 0.00 0.00 67 1014.7
20260904062433 22 157 11.3 17.7 0.00 0.00 0.00 68 1014.8
20260904061928 23 156 19.3 20.9 0.00 0.00 0.00 67 1014.8
20260904061425 22 157 12.9 19.3 0.00 0.00 0.00 68 1015.0
20260904060921 22 149 11.3 19.3 0.00 0.00 0.00 69 1015.0
20260904060416 22 159 16.1 19.3 0.00 0.00 0.00 68 1014.9
20260904055912 22 153 16.1 20.9 0.00 0.00 0.00 68 1014.9
20260904055407 22 160 12.9 19.3 0.00 0.00 0.00 69 1015.0
20260904054903 22 140 11.3 19.3 0.00 0.00 0.00 69 1014.9
20260904054358 22 154 9.7 17.7 0.00 0.00 0.00 71 1014.9
20260904053854 22 160 14.5 20.9 0.00 0.00 0.00 71 1015.1
20260904053353 22 152 12.9 19.3 0.00 0.00 0.00 71 1015.0
20260904052849 22 157 16.1 19.3 0.00 0.00 0.00 71 1015.1
20260904052345 22 160 12.9 20.9 0.00 0.00 0.00 70 1015.1
20260904051841 23 155 14.5 24.1 0.00 0.00 0.00 68 1015.1
20260904051337 23 157 9.7 16.1 0.00 0.00 0.00 68 1015.1
20260904050836 23 151 8.0 17.7 0.00 0.00 0.00 67 1015.0
20260904050333 23 140 11.3 16.1 0.00 0.00 0.00 67 1014.9
20260904045827 23 128 11.3 17.7 0.00 0.66 0.66 67 1014.8
20260904045322 23 128 20.9 24.1 0.00 0.66 0.66 66 1014.9
20260904044817 22 132 12.9 19.3 0.00 0.66 0.66 66 1015.1
20260904044314 22 140 14.5 20.9 0.00 0.66 0.66 66 1014.8
20260904043809 23 144 14.5 17.7 0.00 0.66 0.66 64 1014.8
20260904043306 23 145 16.1 24.1 0.00 0.66 0.66 62 1015.0
20260904042801 23 135 9.7 22.5 0.00 0.66 0.66 62 1015.2
20260904042257 23 127 17.7 24.1 0.00 0.66 0.66 61 1015.0
20260904041756 23 143 14.5 22.5 0.00 0.66 0.66 61 1015.2
20260904041253 24 121 11.3 22.5 0.00 0.66 0.66 59 1015.0
20260904040748 24 128 24.1 29.0 0.00 0.66 0.66 57 1015.0
20260904040244 23 127 6.4 20.9 0.00 0.66 0.66 60 1015.0
20260904035740 24 95 4.8 14.5 0.00 0.66 0.66 60 1015.2
20260904035235 24 144 11.3 17.7 0.00 0.66 0.66 59 1014.8
20260904034734 23 116 9.7 20.9 0.00 0.66 0.66 61 1015.3
20260904034230 24 131 17.7 20.9 0.00 0.66 0.66 61 1015.1
20260904033725 23 118 9.7 20.9 0.00 0.66 0.66 62 1015.2
20260904033222 23 127 8.0 12.9 0.00 0.66 0.66 62 1015.0
20260904032718 23 106 8.0 12.9 0.00 0.66 0.66 63 1015.1
20260904032217 23 98 6.4 11.3 0.00 0.66 0.66 63 1014.9
20260904031712 23 108 4.8 12.9 0.00 0.66 0.66 65 1015.0
20260904031207 23 109 11.3 14.5 0.00 0.66 0.66 66 1015.0
20260904030703 23 88 8.0 12.9 0.00 0.66 0.66 63 1014.9
20260904030158 24 106 11.3 19.3 0.00 0.66 0.66 61 1014.8
20260904025655 25 113 14.5 22.5 0.00 0.66 0.66 59 1014.7
20260904025149 25 129 12.9 24.1 0.00 0.66 0.66 58 1014.3
20260904024645 25 125 12.9 22.5 0.00 0.66 0.66 58 1014.5
20260904024140 25 141 14.5 24.1 0.00 0.66 0.66 56 1014.5
20260904023636 25 137 22.5 25.7 0.00 0.66 0.66 58 1014.5
20260904023131 26 131 17.7 24.1 0.00 0.66 0.66 54 1014.2
20260904022631 26 144 14.5 27.4 0.00 0.66 0.66 54 1014.3
20260904022128 26 146 12.9 20.9 0.00 0.66 0.66 53 1014.0
20260904021624 26 136 19.3 24.1 0.00 0.66 0.66 53 1014.2
20260904021118 25 139 9.7 20.9 0.00 0.66 0.66 54 1014.2
20260904020614 25 128 14.5 20.9 0.00 0.66 0.66 55 1014.3
20260904015557 25 116 8.0 16.1 0.00 0.66 0.66 58 1014.2
20260904015056 25 126 12.9 19.3 0.00 0.66 0.66 56 1014.1
20260904014555 26 97 6.4 19.3 0.00 0.66 0.66 55 1014.0
20260904014051 26 87 11.3 22.5 0.00 0.66 0.66 54 1013.8
20260904013548 26 123 16.1 24.1 0.00 0.66 0.66 54 1013.8
20260904013039 26 133 22.5 35.4 0.00 0.66 0.66 53 1013.9
20260904012538 27 114 9.7 20.9 0.00 0.66 0.66 49 1013.9
20260904012038 27 138 17.7 30.6 0.00 0.66 0.66 49 1013.7
20260904011532 25 93 6.4 19.3 0.00 0.66 0.66 60 1014.1
20260904011027 26 118 22.5 41.8 0.00 0.66 0.66 54 1014.0
20260904010524 25 143 27.4 40.2 0.00 0.66 0.66 62 1013.9
20260904010019 25 149 24.1 37.0 0.00 0.66 0.66 57 1014.0
20260904005514 27 144 24.1 32.2 0.00 0.66 0.66 50 1013.9
20260904005009 26 141 6.4 14.5 0.00 0.66 0.66 56 1014.1
20260904004504 25 140 8.0 17.7 0.00 0.66 0.66 58 1014.2
20260904003959 25 127 11.3 22.5 0.00 0.66 0.66 57 1014.3
20260904003455 25 136 20.9 25.7 0.00 0.66 0.66 58 1014.7
20260904002950 25 97 16.1 17.7 0.00 0.66 0.66 67 1014.7
20260904002446 25 137 14.5 30.6 0.00 0.66 0.66 68 1015.0
20260904001944 24 166 22.5 27.4 0.00 0.66 0.66 71 1015.3
20260904001441 25 150 19.3 24.1 0.00 0.66 0.66 62 1015.0
20260904000935 26 148 9.7 17.7 0.00 0.66 0.66 61 1015.1
20260904000434 25 148 14.5 22.5 0.00 0.66 0.66 63 1015.2
20260903235930 25 147 16.1 19.3 0.00 0.66 0.66 59 1014.9
20260903235426 26 170 16.1 25.7 0.00 0.66 0.66 59 1014.9
20260903234920 26 157 16.1 25.7 0.00 0.66 0.66 57 1014.6
20260903234416 26 94 14.5 16.1 0.00 0.66 0.66 56 1013.9
20260903233912 25 104 12.9 20.9 0.00 0.66 0.66 59 1013.8
20260903233408 25 79 17.7 24.1 0.00 0.66 0.66 58 1013.6
20260903232902 25 82 17.7 20.9 0.00 0.66 0.66 63 1013.6
20260903232357 26 80 14.5 25.7 0.00 0.66 0.66 56 1013.6
20260903231856 26 112 19.3 25.7 0.00 0.66 0.66 59 1013.9
20260903231351 26 138 19.3 30.6 0.00 0.66 0.66 57 1014.0
20260903230847 27 142 16.1 27.4 0.00 0.66 0.66 57 1013.6
20260903230342 29 157 22.5 29.0 0.00 0.66 0.66 50 1013.7
20260903225838 30 148 11.3 14.5 0.00 0.66 0.66 46 1013.6
20260903225334 30 101 6.4 14.5 0.00 0.66 0.66 43 1013.7
20260903224830 29 102 11.3 17.7 0.00 0.66 0.66 47 1013.3
20260903224326 28 130 6.4 11.3 0.00 0.66 0.66 51 1013.8
20260903223822 28 70 12.9 19.3 0.00 0.66 0.66 49 1013.6
20260903223320 28 76 14.5 22.5 0.00 0.66 0.66 48 1013.8
20260903222815 26 101 9.7 20.9 0.00 0.66 0.66 55 1014.1
20260903222314 24 89 12.9 14.5 0.05 0.66 0.66 69 1014.1
20260903221809 23 354 9.7 17.7 1.55 0.66 0.66 68 1014.0
20260903221308 23 62 17.7 40.2 3.07 0.64 0.64 70 1013.9
20260903220806 25 127 9.7 24.1 2.34 0.38 0.38 65 1015.0
20260903220301 25 248 30.6 40.2 0.79 0.13 0.13 84 1013.8
20260903215753 33 284 16.1 27.4 0.00 0.00 0.00 34 1013.6
20260903215250 33 339 11.3 27.4 0.00 0.00 0.00 31 1013.1
20260903214747 33 328 14.5 25.7 0.00 0.00 0.00 31 1013.3
20260903214239 34 301 12.9 24.1 0.00 0.00 0.00 29 1013.2
20260903213732 34 304 9.7 20.9 0.00 0.00 0.00 29 1013.1
20260903213228 34 246 14.5 22.5 0.00 0.00 0.00 29 1013.2
20260903212724 36 210 16.1 19.3 0.00 0.00 0.00 28 1013.2
20260903212220 37 189 16.1 22.5 0.00 0.00 0.00 27 1012.9
20260903211713 38 224 14.5 27.4 0.00 0.00 0.00 25 1013.1
20260903211210 38 183 6.4 12.9 0.00 0.00 0.00 25 1013.1
20260903210706 38 311 6.4 8.0 0.00 0.00 0.00 25 1013.0
20260903210202 37 245 6.4 16.1 0.00 0.00 0.00 25 1013.3
20260903205701 37 209 16.1 25.7 0.00 0.00 0.00 25 1013.3
20260903205200 38 212 19.3 29.0 0.00 0.00 0.00 26 1013.5
20260903204656 38 251 3.2 9.7 0.00 0.00 0.00 25 1013.7
20260903204152 38 244 6.4 11.3 0.00 0.00 0.00 25 1013.6
20260903203647 37 142 8.0 19.3 0.00 0.00 0.00 26 1013.7
20260903203142 38 186 8.0 14.5 0.00 0.00 0.00 25 1013.9
20260903202637 38 205 11.3 12.9 0.00 0.00 0.00 25 1013.7
20260903202132 38 186 12.9 20.9 0.00 0.00 0.00 25 1013.9
20260903201626 38 169 11.3 22.5 0.00 0.00 0.00 26 1014.0
20260903201126 37 213 9.7 17.7 0.00 0.00 0.00 26 1013.8
20260903200621 37 217 25.7 30.6 0.00 0.00 0.00 26 1013.9
20260903200116 37 207 16.1 24.1 0.00 0.00 0.00 27 1014.2
20260903195612 38 163 8.0 16.1 0.00 0.00 0.00 25 1014.1
20260903195108 37 151 6.4 9.7 0.00 0.00 0.00 27 1014.2
20260903194602 38 163 6.4 17.7 0.00 0.00 0.00 26 1014.3
20260903194057 37 212 16.1 19.3 0.00 0.00 0.00 27 1014.6
20260903193554 37 216 17.7 20.9 0.00 0.00 0.00 27 1014.5
20260903193049 37 175 6.4 9.7 0.00 0.00 0.00 27 1014.5
20260903192545 37 206 16.1 22.5 0.00 0.00 0.00 27 1014.5
20260903192040 37 203 20.9 33.8 0.00 0.00 0.00 27 1014.5
20260903191536 37 147 8.0 16.1 0.00 0.00 0.00 28 1014.6
20260903191030 37 168 3.2 12.9 0.00 0.00 0.00 27 1014.8
20260903190524 36 301 9.7 9.7 0.00 0.00 0.00 29 1014.7
20260903190024 36 259 14.5 27.4 0.00 0.00 0.00 29 1014.9
20260903185519 36 268 6.4 12.9 0.00 0.00 0.00 29 1015.1
20260903185015 36 230 12.9 19.3 0.00 0.00 0.00 29 1015.1
20260903184506 36 246 6.4 14.5 0.00 0.00 0.00 29 1015.3
20260903184005 36 287 6.4 9.7 0.00 0.00 0.00 28 1015.2
20260903183500 36 230 12.9 17.7 0.00 0.00 0.00 28 1015.3
20260903182959 36 235 14.5 19.3 0.00 0.00 0.00 29 1015.5
20260903182458 36 228 11.3 16.1 0.00 0.00 0.00 29 1015.6
20260903181954 36 237 12.9 19.3 0.00 0.00 0.00 30 1015.7
20260903181448 35 238 9.7 24.1 0.00 0.00 0.00 30 1015.8
20260903180947 35 240 19.3 25.7 0.00 0.00 0.00 30 1015.7
20260903180443 35 219 11.3 14.5 0.00 0.00 0.00 31 1015.8
20260903175942 35 214 17.7 29.0 0.00 0.00 0.00 30 1015.8
20260903175437 35 230 9.7 14.5 0.00 0.00 0.00 31 1016.0
20260903174936 35 248 9.7 20.9 0.00 0.00 0.00 31 1016.0
20260903174432 35 239 20.9 22.5 0.00 0.00 0.00 31 1015.9
20260903173931 35 224 20.9 32.2 0.00 0.00 0.00 32 1016.2
20260903173426 35 218 11.3 32.2 0.00 0.00 0.00 32 1016.1
20260903172922 35 216 24.1 29.0 0.00 0.00 0.00 32 1015.9
20260903172416 35 215 17.7 27.4 0.00 0.00 0.00 32 1016.0
20260903171912 35 210 25.7 32.2 0.00 0.00 0.00 33 1016.0
20260903171407 35 209 17.7 30.6 0.00 0.00 0.00 33 1015.9
20260903170901 35 205 11.3 24.1 0.00 0.00 0.00 33 1016.1
20260903170356 35 210 20.9 33.8 0.00 0.00 0.00 33 1016.0
20260903165855 34 229 20.9 29.0 0.00 0.00 0.00 33 1016.1
20260903165349 33 215 27.4 30.6 0.00 0.00 0.00 33 1016.2
20260903164844 33 234 20.9 25.7 0.00 0.00 0.00 33 1016.2
20260903164339 34 221 17.7 27.4 0.00 0.00 0.00 33 1015.9